INS-1C (43116 NORAD) Tracking and Keplerian Element Data

This shows tracking and keplerian element data for the satellite.

Feedback or suggestion? Click here.




ElementValue
Catalog43116
NameINS-1C
Epoch Orbit31335
Epoch Day238.77951393
Epoch Year2023
RAAN322.3152
Inclination97.3318
Eccentricity0.0005172
Argument of Perigee219.2505
Mean Anonmoly140.8379
Mean Motion15.61690573
Decay Rate0.00093222
L11 43116U 18004F 23238.77951393 .00093222 00000+0 10722-2 0 9991
L22 43116 97.3318 322.3152 0005172 219.2505 140.8379 15.61690573313355



Live tracking and technical data element details for INS-1C (NORAD 43116). INS-1C can be tracked NOW for your location showing map with azimuth and elevation plus other details from your city location.







IsCatalogInMostPopularTable: catalog: 43116, numindb: 417
Update: records affected: 1



GetName: 43116 INS-1C

Hit Count: updated at: Thu, 15 May 2025 10:23:53 GMT